| time (UTC) | temp F | wind direction | speed MPH | gust MPH | rain 1hr in | rain 24hr in | rain mn in | humidity % | barometer mb |
| 20260508053616 | 48 | 158 | 0.0 | 0.0 | 0.00 | 0.00 | 0.00 | 89 | 1009.4 |
| 20260508052306 | 48 | 158 | 0.0 | 0.0 | 0.00 | 0.00 | 0.00 | 90 | 1009.3 |
| 20260508050817 | 48 | 135 | 0.0 | 0.0 | 0.00 | 0.00 | 0.00 | 90 | 1009.2 |
| 20260508050117 | 48 | 158 | 0.0 | 0.0 | 0.00 | 0.00 | 0.00 | 90 | 1009.1 |
| 20260508045417 | 47 | 135 | 0.0 | 0.0 | 0.00 | 0.00 | 0.00 | 90 | 1009.0 |
| 20260508044720 | 47 | 135 | 0.0 | 0.0 | 0.00 | 0.00 | 0.00 | 90 | 1009.0 |
| 20260508043318 | 47 | 158 | 0.0 | 0.0 | 0.00 | 0.00 | 0.00 | 90 | 1009.1 |
| 20260508042618 | 47 | 158 | 0.0 | 0.0 | 0.00 | 0.00 | 0.00 | 90 | 1009.0 |
| 20260508041918 | 47 | 158 | 0.0 | 0.0 | 0.00 | 0.00 | 0.00 | 90 | 1009.1 |
| 20260508041218 | 47 | 158 | 0.0 | 0.0 | 0.00 | 0.00 | 0.00 | 89 | 1009.0 |
| 20260508035819 | 47 | 158 | 0.0 | 0.0 | 0.00 | 0.00 | 0.00 | 89 | 1008.9 |
| 20260508033721 | 47 | 135 | 0.0 | 0.0 | 0.00 | 0.00 | 0.00 | 89 | 1008.7 |
| 20260508033019 | 47 | 135 | 0.0 | 0.0 | 0.00 | 0.00 | 0.00 | 88 | 1008.9 |
| 20260508032322 | 47 | 135 | 0.0 | 0.0 | 0.00 | 0.00 | 0.00 | 88 | 1009.0 |
| 20260508031620 | 47 | 158 | 0.0 | 0.0 | 0.00 | 0.00 | 0.00 | 88 | 1008.9 |
| 20260508030920 | 47 | 158 | 0.0 | 0.0 | 0.00 | 0.00 | 0.00 | 87 | 1008.9 |
| 20260508030220 | 47 | 135 | 0.0 | 0.0 | 0.00 | 0.00 | 0.00 | 87 | 1008.7 |
| 20260508024820 | 47 | 135 | 0.0 | 0.0 | 0.00 | 0.00 | 0.00 | 87 | 1008.6 |
| 20260508024125 | 47 | 135 | 0.0 | 2.0 | 0.00 | 0.00 | 0.00 | 86 | 1008.5 |
| 20260508023421 | 47 | 158 | 0.0 | 3.0 | 0.00 | 0.00 | 0.00 | 86 | 1008.5 |
| 20260508022723 | 48 | 135 | 0.0 | 4.0 | 0.00 | 0.00 | 0.00 | 86 | 1008.6 |
| 20260508022021 | 48 | 135 | 0.0 | 2.0 | 0.00 | 0.00 | 0.00 | 86 | 1008.7 |
| 20260508021321 | 48 | 359 | 0.0 | 0.0 | 0.00 | 0.00 | 0.00 | 86 | 1008.7 |
| 20260508020621 | 212 | 359 | 0.0 | 0.0 | 0.00 | 0.00 | 0.00 | 100 | |
| 20260508015921 | 48 | 135 | 0.0 | 3.0 | 0.00 | 0.00 | 0.00 | 86 | 1008.7 |
| 20260508015222 | 48 | 135 | 0.0 | 5.0 | 0.00 | 0.00 | 0.00 | 86 | 1008.6 |
| 20260508014522 | 48 | 158 | 0.0 | 3.0 | 0.00 | 0.00 | 0.00 | 85 | 1008.5 |
| 20260508013822 | 48 | 158 | 0.0 | 4.0 | 0.00 | 0.00 | 0.00 | 85 | 1008.6 |
| 20260508013207 | 48 | 158 | 1.0 | 4.0 | 0.00 | 0.00 | 0.00 | 85 | 1008.5 |
| 20260508012507 | 48 | 158 | 1.0 | 7.0 | 0.00 | 0.00 | 0.00 | 85 | 1008.4 |
| 20260508011108 | 49 | 359 | 0.0 | 0.0 | 0.00 | 0.00 | 0.00 | 84 | 1008.5 |
| 20260508005708 | 49 | 359 | 0.0 | 0.0 | 0.00 | 0.00 | 0.00 | 84 | 1008.3 |
| 20260508004308 | 49 | 158 | 1.0 | 3.0 | 0.00 | 0.00 | 0.00 | 84 | 1008.3 |
| 20260508003609 | 49 | 158 | 0.0 | 2.0 | 0.00 | 0.00 | 0.00 | 84 | 1008.3 |
| 20260508002909 | 49 | 135 | 1.0 | 4.0 | 0.00 | 0.00 | 0.00 | 84 | 1008.2 |
| 20260508002209 | 49 | 359 | 0.0 | 0.0 | 0.00 | 0.00 | 0.00 | 84 | 1008.2 |
| 20260508001424 | 49 | 158 | 1.0 | 4.0 | 0.00 | 0.00 | 0.00 | 84 | 1008.3 |
| 20260508000724 | 49 | 359 | 0.0 | 0.0 | 0.00 | 0.00 | 0.00 | 84 | 1008.3 |
| 20260507235410 | 49 | 158 | 3.0 | 6.0 | 0.00 | 0.02 | 0.00 | 84 | 1008.1 |
| 20260507234710 | 49 | 158 | 2.0 | 7.0 | 0.00 | 0.02 | 0.00 | 84 | 1008.1 |
| 20260507233310 | 49 | 158 | 1.0 | 4.0 | 0.00 | 0.02 | 0.00 | 84 | 1008.1 |
| 20260507232612 | 49 | 158 | 1.0 | 3.0 | 0.00 | 0.02 | 0.00 | 84 | 1008.0 |
| 20260507231128 | 50 | 158 | 1.0 | 7.0 | 0.00 | 0.02 | 0.00 | 84 | 1008.0 |
| 20260507230433 | 50 | 158 | 2.0 | 8.0 | 0.00 | 0.02 | 0.00 | 84 | 1008.1 |
| 20260507225026 | 50 | 158 | 2.0 | 8.0 | 0.00 | 0.06 | 0.00 | 84 | 1008.0 |
| 20260507224326 | 50 | 135 | 3.0 | 8.0 | 0.00 | 0.06 | 0.00 | 84 | 1008.0 |
| 20260507223627 | 50 | 158 | 4.0 | 8.0 | 0.00 | 0.06 | 0.00 | 85 | 1008.0 |
| 20260507222927 | 50 | 135 | 2.0 | 5.0 | 0.00 | 0.06 | 0.00 | 85 | 1007.9 |
| 20260507221527 | 50 | 158 | 2.0 | 7.0 | 0.00 | 0.06 | 0.00 | 85 | 1007.7 |
| 20260507220832 | 50 | 158 | 1.0 | 5.0 | 0.00 | 0.06 | 0.00 | 85 | 1007.9 |
| 20260507220132 | 50 | 135 | 1.0 | 4.0 | 0.00 | 0.06 | 0.00 | 85 | 1007.9 |
| 20260507215428 | 50 | 135 | 2.0 | 4.0 | 0.00 | 0.06 | 0.00 | 85 | 1007.6 |
| 20260507214748 | 54 | 135 | 0.0 | 4.0 | 0.00 | 0.06 | 0.00 | 85 | 1007.7 |
| 20260507214741 | 50 | 135 | 0.0 | 4.0 | 0.00 | 0.06 | 0.00 | 85 | 1007.7 |
| 20260507214032 | 50 | 135 | 0.0 | 4.0 | 0.00 | 0.06 | 0.00 | 85 | 1007.8 |
| 20260507213330 | 50 | 135 | 0.0 | 4.0 | 0.00 | 0.06 | 0.00 | 85 | 1007.5 |
| 20260507212628 | 50 | 90 | 0.0 | 2.0 | 0.00 | 0.06 | 0.00 | 85 | 1007.6 |
| 20260507210553 | 51 | 135 | 1.0 | 4.0 | 0.00 | 0.06 | 0.00 | 84 | 1007.5 |
| 20260507205836 | 51 | 135 | 0.0 | 3.0 | 0.00 | 0.06 | 0.00 | 84 | 1007.5 |
| 20260507205136 | 51 | 135 | 0.0 | 0.0 | 0.00 | 0.06 | 0.00 | 84 | 1007.5 |
| 20260507204429 | 51 | 135 | 0.0 | 1.0 | 0.00 | 0.06 | 0.00 | 84 | 1007.6 |
| 20260507203749 | 51 | 135 | 0.0 | 0.0 | 0.00 | 0.06 | 0.00 | 84 | 1007.4 |
| 20260507202332 | 51 | 158 | 0.0 | 0.0 | 0.00 | 0.06 | 0.00 | 83 | 1007.4 |
| 20260507200930 | 51 | 158 | 0.0 | 0.0 | 0.00 | 0.06 | 0.00 | 83 | 1007.5 |
| 20260507195531 | 51 | 158 | 0.0 | 1.0 | 0.00 | 0.06 | 0.00 | 83 | 1007.4 |
| 20260507194831 | 51 | 135 | 0.0 | 2.0 | 0.00 | 0.06 | 0.00 | 83 | 1007.1 |
| 20260507194131 | 51 | 158 | 0.0 | 0.0 | 0.00 | 0.06 | 0.00 | 83 | 1007.4 |
| 20260507193431 | 52 | 158 | 0.0 | 3.0 | 0.00 | 0.06 | 0.00 | 83 | 1007.2 |
| 20260507192310 | 52 | 158 | 0.0 | 3.0 | 0.00 | 0.06 | 0.00 | 83 | 1006.9 |
| 20260507192152 | 52 | 158 | 0.0 | 3.0 | 0.00 | 0.06 | 0.00 | 83 | 1006.9 |
| 20260507192120 | 52 | 158 | 0.0 | 3.0 | 0.00 | 0.06 | 0.00 | 83 | 1006.9 |
| 20260507192041 | 52 | 158 | 0.0 | 3.0 | 0.00 | 0.06 | 0.00 | 83 | 1006.9 |
| 20260507192031 | 52 | 158 | 0.0 | 3.0 | 0.00 | 0.06 | 0.00 | 83 | 1006.9 |
| 20260507191334 | 52 | 158 | 0.0 | 0.0 | 0.00 | 0.06 | 0.00 | 82 | 1006.8 |
| 20260507190807 | 52 | 158 | 0.0 | 2.0 | 0.00 | 0.06 | 0.00 | 82 | 1006.6 |
| 20260507190730 | 52 | 158 | 0.0 | 2.0 | 0.00 | 0.06 | 0.00 | 82 | 1006.6 |
| 20260507190658 | 52 | 158 | 0.0 | 2.0 | 0.00 | 0.06 | 0.00 | 82 | 1006.6 |
| 20260507190632 | 52 | 158 | 0.0 | 2.0 | 0.00 | 0.06 | 0.00 | 82 | 1006.6 |
| 20260507185932 | 52 | 158 | 1.0 | 4.0 | 0.00 | 0.06 | 0.00 | 82 | 1006.8 |
| 20260507184625 | 52 | 135 | 0.0 | 0.0 | 0.00 | 0.06 | 0.00 | 81 | 1006.7 |
| 20260507184617 | 52 | 135 | 0.0 | 0.0 | 0.00 | 0.06 | 0.00 | 81 | 1006.7 |
| 20260507183133 | 52 | 158 | 0.0 | 1.0 | 0.00 | 0.06 | 0.00 | 81 | 1006.7 |
| 20260507182433 | 52 | 135 | 0.0 | 0.0 | 0.00 | 0.06 | 0.00 | 80 | 1006.4 |
| 20260507181633 | 53 | 135 | 0.0 | 2.0 | 0.00 | 0.06 | 0.00 | 80 | 1006.5 |
| 20260507181102 | 53 | 135 | 0.0 | 2.0 | 0.00 | 0.06 | 0.00 | 80 | 1006.5 |
| 20260507180418 | 53 | 90 | 0.0 | 2.0 | 0.00 | 0.06 | 0.00 | 80 | 1006.4 |
| 20260507175634 | 53 | 135 | 0.0 | 0.0 | 0.00 | 0.06 | 0.00 | 79 | 1006.3 |
| 20260507174938 | 53 | 135 | 0.0 | 0.0 | 0.00 | 0.06 | 0.00 | 79 | 1006.4 |
| 20260507172143 | 53 | 135 | 0.0 | 3.0 | 0.00 | 0.06 | 0.00 | 78 | 1005.6 |
| 20260507171439 | 53 | 135 | 2.0 | 7.0 | 0.00 | 0.06 | 0.00 | 78 | 1005.6 |
| 20260507170820 | 53 | 135 | 3.0 | 7.0 | 0.00 | 0.06 | 0.00 | 77 | 1005.4 |
| 20260507165335 | 54 | 158 | 4.0 | 10.0 | 0.00 | 0.06 | 0.00 | 77 | 1005.2 |
| 20260507163940 | 55 | 135 | 4.0 | 8.0 | 0.00 | 0.06 | 0.00 | 76 | 1005.1 |
| 20260507162536 | 55 | 158 | 4.0 | 7.0 | 0.00 | 0.06 | 0.00 | 76 | 1005.0 |
| 20260507161136 | 56 | 158 | 3.0 | 7.0 | 0.00 | 0.06 | 0.00 | 76 | 1005.0 |
| 20260507160436 | 56 | 359 | 0.0 | 0.0 | 0.00 | 0.06 | 0.00 | 75 | 1005.3 |
| 20260507155039 | 56 | 135 | 2.0 | 6.0 | 0.00 | 0.06 | 0.00 | 75 | 1005.2 |
| 20260507154337 | 56 | 158 | 3.0 | 7.0 | 0.00 | 0.06 | 0.00 | 75 | 1005.1 |
| 20260507152348 | 56 | 135 | 4.0 | 9.0 | 0.00 | 0.06 | 0.00 | 75 | 1005.1 |
| 20260507151538 | 56 | 135 | 4.0 | 9.0 | 0.00 | 0.06 | 0.00 | 75 | 1005.1 |
| 20260507150847 | 57 | 135 | 6.0 | 11.0 | 0.00 | 0.06 | 0.00 | 75 | 1005.0 |
| 20260507150142 | 57 | 135 | 4.0 | 11.0 | 0.00 | 0.06 | 0.00 | 74 | 1005.1 |
| 20260507145438 | 57 | 359 | 0.0 | 0.0 | 0.00 | 0.06 | 0.00 | 74 | 1005.1 |
| 20260507144738 | 58 | 135 | 3.0 | 9.0 | 0.00 | 0.06 | 0.00 | 73 | 1005.1 |
| 20260507144038 | 59 | 135 | 2.0 | 6.0 | 0.00 | 0.06 | 0.00 | 71 | 1005.0 |
| 20260507143339 | 60 | 113 | 1.0 | 6.0 | 0.00 | 0.06 | 0.00 | 69 | 1005.0 |
| 20260507141939 | 61 | 135 | 4.0 | 8.0 | 0.00 | 0.06 | 0.00 | 69 | 1004.6 |
| 20260507141248 | 62 | 135 | 4.0 | 11.0 | 0.00 | 0.06 | 0.00 | 68 | 1004.5 |
| 20260507140539 | 62 | 135 | 3.0 | 8.0 | 0.00 | 0.06 | 0.00 | 69 | 1004.7 |
| 20260507135842 | 61 | 135 | 2.0 | 6.0 | 0.00 | 0.06 | 0.00 | 70 | 1004.6 |
| 20260507134440 | 60 | 68 | 2.0 | 7.0 | 0.00 | 0.06 | 0.00 | 70 | 1004.6 |
| 20260507133040 | 62 | 68 | 1.0 | 5.0 | 0.00 | 0.06 | 0.00 | 70 | 1004.5 |
| 20260507132340 | 62 | 68 | 0.0 | 3.0 | 0.00 | 0.06 | 0.00 | 70 | 1004.7 |
| 20260507130241 | 61 | 113 | 1.0 | 5.0 | 0.00 | 0.06 | 0.00 | 71 | 1004.4 |
| 20260507124141 | 60 | 359 | 0.0 | 0.0 | 0.00 | 0.06 | 0.00 | 72 | 1004.5 |
| 20260507123442 | 61 | 135 | 3.0 | 8.0 | 0.00 | 0.06 | 0.00 | 72 | 1004.5 |
| 20260507115243 | 58 | 359 | 0.0 | 0.0 | 0.00 | 0.06 | 0.00 | 75 | 1004.5 |
| 20260507112446 | 59 | 113 | 1.0 | 5.0 | 0.00 | 0.06 | 0.00 | 75 | 1004.3 |
| 20260507111744 | 59 | 90 | 1.0 | 5.0 | 0.00 | 0.06 | 0.00 | 75 | 1004.3 |
| 20260507104244 | 58 | 90 | 0.0 | 4.0 | 0.00 | 0.06 | 0.00 | 81 | 1004.0 |
| 20260507102845 | 57 | 359 | 0.0 | 0.0 | 0.00 | 0.06 | 0.00 | 83 | 1003.9 |
| 20260507102145 | 57 | 359 | 0.0 | 0.0 | 0.00 | 0.06 | 0.00 | 84 | 1004.0 |
| 20260507101445 | 56 | 135 | 1.0 | 6.0 | 0.00 | 0.06 | 0.00 | 86 | 1003.8 |
| 20260507093253 | 52 | 90 | 1.0 | 5.0 | 0.00 | 0.06 | 0.00 | 90 | 1003.4 |
| 20260507092551 | 51 | 113 | 0.0 | 5.0 | 0.00 | 0.06 | 0.00 | 90 | 1003.2 |
| 20260507091855 | 51 | 135 | 1.0 | 4.0 | 0.00 | 0.06 | 0.00 | 90 | 1003.4 |
| 20260507090532 | 51 | 135 | 1.0 | 5.0 | 0.00 | 0.06 | 0.00 | 90 | 1003.3 |
| 20260507085049 | 51 | 135 | 1.0 | 4.0 | 0.00 | 0.06 | 0.00 | 89 | 1002.9 |
| 20260507084407 | 51 | 135 | 1.0 | 5.0 | 0.00 | 0.06 | 0.00 | 89 | 1002.8 |
| 20260507083648 | 51 | 90 | 1.0 | 5.0 | 0.00 | 0.06 | 0.00 | 89 | 1002.6 |
| 20260507082248 | 51 | 90 | 2.0 | 7.0 | 0.00 | 0.06 | 0.00 | 89 | 1002.3 |
| 20260507080848 | 51 | 113 | 0.0 | 2.0 | 0.00 | 0.06 | 0.00 | 88 | 1002.3 |
| 20260507075455 | 52 | 90 | 0.0 | 3.0 | 0.00 | 0.06 | 0.00 | 88 | 1002.0 |
| 20260507074749 | 52 | 68 | 0.0 | 4.0 | 0.00 | 0.06 | 0.00 | 88 | 1002.2 |
| 20260507073353 | 53 | 359 | 0.0 | 0.0 | 0.00 | 0.06 | 0.00 | 88 | 1001.6 |
| 20260507072656 | 53 | 359 | 0.0 | 0.0 | 0.00 | 0.06 | 0.00 | 88 | 1001.6 |
| 20260507071252 | 53 | 68 | 1.0 | 5.0 | 0.00 | 0.06 | 0.00 | 88 | 1001.5 |
| 20260507065150 | 54 | 90 | 1.0 | 4.0 | 0.00 | 0.06 | 0.00 | 88 | 1001.3 |
| 20260507064452 | 54 | 359 | 0.0 | 0.0 | 0.00 | 0.06 | 0.00 | 88 | 1001.2 |
| 20260507063750 | 55 | 90 | 1.0 | 6.0 | 0.00 | 0.06 | 0.00 | 89 | 1001.0 |
| 20260507063051 | 55 | 68 | 1.0 | 5.0 | 0.00 | 0.06 | 0.00 | 89 | 1001.1 |
| 20260507060258 | 56 | 90 | 1.0 | 4.0 | 0.00 | 0.06 | 0.00 | 89 | 1000.7 |
| 20260507055552 | 56 | 113 | 0.0 | 2.0 | 0.00 | 0.06 | 0.00 | 90 | 1000.7 |